Sault Ste Marie, MI

6:49 AM EDT on June 25, 2017 (GMT -0400)
Sault Ste Marie Municipal / Sanderson Field

Weather History for KANJ - January, 2014

Change the Weather History Date:

Wednesday, January 29, 2014

  Actual Average Record
Temperature  
Mean Temperature 8 °F 15 °F  
Max Temperature 14 °F 23 °F 48 °F (1914)
Min Temperature 1 °F 7 °F -26 °F (1899)
Degree Days  
Heating Degree Days 57 50  
Month to date heating degree days 1618 1438  
Since 1 July heating degree days 5133 4697  
Moisture  
Dew Point -2 °F    
Average Humidity 72    
Maximum Humidity 83    
Minimum Humidity 61    
Precipitation  
Precipitation 0.03 in 0.06 in 0.95 in (1996)
Month to date precipitation 2.35 2.06  
Year to date precipitation 2.35 2.06  
Snow  
Snow 0.40 in 0.90 in 11.70 in (1996)
Month to date snowfall 32.5 29.5  
Since 1 July snowfall 87.2 79.7  
Snow Depth 25.00 in    
Sea Level Pressure  
Sea Level Pressure 29.80 in    
Wind  
Wind Speed 11 mph (SW)    
Max Wind Speed 20 mph    
Max Gust Speed 27 mph    
Visibility 5 miles    
Events Snow    
T = Trace of Precipitation, MM = Missing Value Source: NWS Daily Summary

Daily Weather History Graph

Daily Weather History Graph

Search for Another Location

Airport or City:

Trip Planner

Search our weather history database for the weather conditions in past years. The results will help you decide how hot, cold, wet, or windy it might be!

Date:

Astronomy

Jan. 29, 2014 Rise Set
Actual Time 8:04 AM EST 5:37 PM EST
Civil Twilight 7:32 AM EST 6:09 PM EST
Nautical Twilight 6:55 AM EST 6:46 PM EST
Astronomical Twilight 6:20 AM EST 7:21 PM EST
Moon 6:41 AM EST (1/29) 4:36 PM EST (1/29)
Length of Visible Light 10h 37m
Length of Day
9h 32m
Waning Crescent, 2% of the Moon is Illuminated
Jan 29
Waning Crescent
Jan 30
New
Feb 6
First Quarter
Feb 14
Full
Feb 22
Last Quarter

Hourly Weather History & Observations

Time (EST) Temp. Windchill Dew Point Humidity Pressure Visibility Wind Dir Wind Speed Gust Speed Precip Events Conditions
12:55 AM 1.9 °F -17.5 °F -7.1 °F 66% 29.81 in 10.0 mi SW 16.1 mph 21.9 mph N/A   Overcast
1:34 AM 1.0 °F -18.7 °F -6.0 °F 72% 29.74 in 2.5 mi SW 16.1 mph - 0.00 in Snow Light Snow
1:41 AM 1.0 °F -18.7 °F -6.0 °F 72% 29.74 in 4.0 mi SW 16.1 mph 24.2 mph 0.00 in Snow Light Snow
1:55 AM 1.0 °F -16.6 °F -6.0 °F 72% 29.78 in 2.5 mi WSW 12.7 mph 25.3 mph 0.00 in Snow Light Snow
2:04 AM 1.0 °F -17.3 °F -5.1 °F 75% 29.73 in 5.0 mi SW 13.8 mph 23.0 mph 0.00 in Snow Light Snow
2:55 AM 1.0 °F -18.0 °F -6.0 °F 72% 29.77 in 5.0 mi WSW 15.0 mph 21.9 mph 0.00 in Snow Light Snow
3:25 AM 1.0 °F -19.9 °F -5.1 °F 75% 29.72 in 2.0 mi WSW 18.4 mph 24.2 mph 0.00 in Snow Light Snow
3:43 AM 1.0 °F -19.3 °F -6.0 °F 72% 29.71 in 3.0 mi SW 17.3 mph 24.2 mph 0.00 in Snow Light Snow
3:55 AM 1.0 °F -18.0 °F -5.1 °F 75% 29.76 in 1.8 mi WSW 15.0 mph - 0.00 in Snow Light Snow
4:32 AM 1.0 °F -18.0 °F -5.1 °F 75% 29.70 in 1.8 mi WSW 15.0 mph 24.2 mph 0.00 in Snow Light Snow
4:39 AM 1.0 °F -18.0 °F -5.1 °F 75% 29.70 in 2.0 mi WSW 15.0 mph 23.0 mph 0.00 in Snow Light Snow
4:55 AM 1.0 °F -18.0 °F -5.1 °F 75% 29.76 in 1.5 mi WSW 15.0 mph 20.7 mph 0.00 in Snow Light Snow
5:10 AM 1.0 °F -17.3 °F -5.1 °F 75% 29.71 in 1.2 mi WSW 13.8 mph 21.9 mph 0.00 in Snow Light Snow
5:23 AM 1.0 °F -16.6 °F -5.1 °F 75% 29.71 in 2.0 mi WSW 12.7 mph 20.7 mph 0.00 in Snow Light Snow
5:40 AM 1.0 °F -18.7 °F -5.1 °F 75% 29.71 in 1.5 mi WSW 16.1 mph - 0.00 in Snow Light Snow
5:55 AM 1.0 °F -18.7 °F -5.1 °F 75% 29.77 in 1.8 mi WSW 16.1 mph - 0.00 in Snow Light Snow
6:33 AM 1.0 °F -18.0 °F -5.1 °F 75% 29.72 in 3.0 mi WSW 15.0 mph - 0.00 in Snow Light Snow
6:55 AM 1.0 °F -18.7 °F -5.1 °F 75% 29.78 in 3.0 mi WSW 16.1 mph - 0.00 in   Haze
7:11 AM 1.0 °F -16.6 °F -5.1 °F 75% 29.73 in 2.0 mi WSW 12.7 mph - 0.00 in Snow Light Snow
7:52 AM 1.4 °F -13.5 °F -5.8 °F 72% 29.74 in 3.0 mi WSW 9.2 mph - 0.00 in Snow Light Snow
7:55 AM 1.0 °F -16.6 °F -5.1 °F 75% 29.80 in 3.0 mi WSW 12.7 mph 19.6 mph 0.00 in Snow Light Snow
8:02 AM 1.0 °F -15.8 °F -5.1 °F 75% 29.74 in 2.5 mi WSW 11.5 mph 19.6 mph 0.00 in Snow Light Snow
8:17 AM 1.0 °F -17.3 °F -5.1 °F 75% 29.75 in 2.0 mi WSW 13.8 mph - 0.00 in Snow Light Snow
8:31 AM 1.9 °F -14.7 °F -5.1 °F 72% 29.75 in 3.0 mi SW 11.5 mph - 0.00 in Snow Light Snow
8:52 AM 1.4 °F -17.6 °F -4.0 °F 78% 29.77 in 2.0 mi WSW 15.0 mph 23.0 mph 0.00 in Snow Light Snow
8:55 AM 1.9 °F -16.9 °F -4.0 °F 76% 29.82 in 1.8 mi WSW 15.0 mph - 0.00 in Snow Light Snow
9:02 AM 1.9 °F -16.9 °F -4.0 °F 76% 29.77 in 2.5 mi SW 15.0 mph - 0.00 in Snow Light Snow
9:19 AM 1.9 °F -14.7 °F -5.1 °F 72% 29.77 in 3.0 mi WSW 11.5 mph - 0.00 in Snow Light Snow
9:27 AM 1.9 °F -16.2 °F -4.0 °F 76% 29.77 in 2.0 mi WSW 13.8 mph - 0.00 in Snow Light Snow
9:43 AM 3.0 °F -12.5 °F -4.0 °F 73% 29.78 in 3.0 mi WSW 10.4 mph - 0.00 in Snow Light Snow
9:55 AM 3.0 °F -15.5 °F -2.9 °F 76% 29.83 in 3.0 mi WSW 15.0 mph - 0.00 in Snow Light Snow
10:55 AM 6.1 °F -6.8 °F -0.9 °F 73% 29.85 in 7.0 mi SW 8.1 mph 18.4 mph 0.00 in   Overcast
11:55 AM 8.1 °F -7.0 °F -0.0 °F 70% 29.87 in 9.0 mi WSW 11.5 mph - 0.00 in   Overcast
12:55 PM 10.9 °F -1.8 °F 1.9 °F 67% 29.86 in 10.0 mi WSW 9.2 mph - N/A   Mostly Cloudy
1:55 PM 10.9 °F -4.7 °F 3.0 °F 70% 29.88 in 3.0 mi WSW 13.8 mph 19.6 mph 0.00 in Snow Light Snow
2:17 PM 12.9 °F 2.6 °F 3.0 °F 65% 29.83 in 10.0 mi Variable 6.9 mph - 0.00 in   Scattered Clouds
2:55 PM 14.0 °F -0.2 °F 3.0 °F 62% 29.90 in 10.0 mi WSW 12.7 mph - 0.01 in   Clear
3:55 PM 12.9 °F -2.8 °F 1.9 °F 62% 29.90 in 10.0 mi SW 15.0 mph - 0.05 in   Clear
4:55 PM 10.9 °F -4.1 °F 1.0 °F 64% 29.91 in 10.0 mi SSW 12.7 mph - N/A   Clear
5:55 PM 9.0 °F -2.2 °F 3.0 °F 77% 29.93 in 10.0 mi SSW 6.9 mph - N/A   Mostly Cloudy
6:55 PM 9.0 °F 2.4 °F 3.0 °F 77% 29.94 in 7.0 mi ESE 3.5 mph - N/A   Overcast
7:55 PM 10.0 °F 1.8 °F 5.0 °F 80% 29.93 in 9.0 mi East 4.6 mph - N/A   Overcast
8:55 PM 10.9 °F 1.4 °F 6.1 °F 81% 29.91 in 10.0 mi ESE 5.8 mph - N/A   Overcast
9:55 PM 12.0 °F 4.1 °F 7.0 °F 80% 29.88 in 10.0 mi Variable 4.6 mph - N/A   Overcast
10:55 PM 12.9 °F 3.8 °F 7.0 °F 77% 29.87 in 10.0 mi ESE 5.8 mph - N/A   Overcast
11:55 PM 14.0 °F 5.1 °F 8.1 °F 77% 29.86 in 10.0 mi SSE 5.8 mph - N/A   Mostly Cloudy